Showing default

COSMOS 2322, 23704

Orbit data source: Space-Track

COSMOS 2322, 23704 is a payload satellite owned by GRU (CIS) in LEO that was launched on Tue, 31 Oct 1995 UTC via a ZENIT-2 launch vehicle from the Tyuratam Missile And Space Complex (TTMTR). Payload-class satellites include a variety of spacecraft equipped with specific instruments for various scientific and technological missions. These include communications satellites like Starlink; space stations such as the ISS; scientific satellites like the Hubble; Earth observation satellites from companies like Planet Labs, Umbra, and HawkEye 360; GPS; miniature CubeSats for education and research; and military/defense satellites.

Loading next visibility...
Identifier
23704, 1995-058A
Orbit
LEO
Country
Flag of CISCIS
Related business
Manufacturer
Yuzhnoe
Mission
Defense Sigint
Bus & Motor
TSELINA-2, Unknown motor
Mass
3,250 kg wet, 3,250 kg dry
Launch date (UTC)
1995-10-31 (31 years ago)
Launch vehicle
ZENIT-2
Launch site
Tyuratam Missile And Space Complex (TTMTR)
Object type
Payload
Rocket body
Debris
Shape & HBR
Cyl, 2.3 m
Radar Cross Section
5.718 m², Large (>1 m²)

Expand to show TLE details & history
Last TLE update: 2 days ago

TLE from 2 days ago
0 COSMOS 2322
1 23704U 95058A   26171.40753993 -.00000270  00000-0 -11742-3 0  9999
2 23704  70.9854 346.0857 0008719 167.1842 192.9503 14.13820021580574
Epoch: 2026-06-20T09:46Z
TLE epoch observation values (Epoch: 2026-06-20T09:46:51.449Z)
Latitude
-0.00007°
Longitude
-69.2513°
Altitude
854.867 km
Speed
7.422 km/s
True Right ascension
23h 04m 20s
True Declination
0° 00' 00"
Sunlit
Object was in daylight at epoch
Visualization orbit readout
Latitude
Unknown
Longitude
Unknown
Altitude
Unknown
Speed
Unknown
Apparent Right ascension
Unknown
Apparent Declination
Unknown
Sunlit
N/A
Visualization observer readout
Local Sidereal Time
23:20:33
Azimuth
Unknown
Elevation
Unknown
Doppler factor
Unknown
Orbital elements
Apogee altitude
850.554 km
Perigee altitude
837.959 km
Semi-major axis
7,222.394 km
Eccentricity
0.00087
Inclination
70.9854°
RAAN
346.0857°
Arg. of periapsis
167.1842°
True anomaly
192.92793°
Mean anomaly
192.9503°
Eccentric anomaly
192.93911°
Mean motion
3.53607 °/min
Orbital period
101.81 mins
BSTAR
-0.00011742
Loading maneuver chart data...
Computing Atmospheric mass density...
Loading historical data...
Loading historical data...
Loading historical data...
Loading historical data...
Loading historical data...
Loading historical data...
Loading historical data...

Documentation

Showing up to 5 results
|